Location: Rochester
(43.1610°N, 77.6109°W)
Time: 03:19:35
(UTC-05:00)

Envisat - Visible Passes

Search period start: 25 January 2021 00:00
Search period end: 04 February 2021 00:00
Orbit: 764 x 766 km, 98.1° (Epoch: 24 January)

Date Brightness Start Highest point End Pass type
(mag) Time Alt. Az. Time Alt. Az. Time Alt. Az.
25 Jan 5.9 04:39:41 10° NE 04:42:29 15° E 04:45:16 10° ESE visible
25 Jan 2.9 06:16:55 10° N 06:21:59 69° WNW 06:27:01 10° SSW visible
26 Jan 3.7 05:40:10 10° NNE 05:45:10 55° E 05:50:08 10° S visible
26 Jan 6.3 18:38:04 10° WSW 18:40:11 12° W 18:42:19 10° WNW visible
27 Jan 5.2 05:03:57 10° NE 05:08:09 25° E 05:12:18 10° SSE visible
27 Jan 3.4 06:42:33 10° N 06:47:17 40° WNW 06:51:59 10° SW visible
27 Jan 5.4 17:58:41 10° SSW 18:02:59 28° W 18:07:19 10° NW visible
28 Jan 6.2 04:29:23 10° ENE 04:30:55 11° E 04:32:27 10° ESE visible
28 Jan 2.9 06:05:29 10° NNE 06:10:36 86° WNW 06:15:41 10° SSW visible
29 Jan 4.2 05:28:52 10° NNE 05:33:43 43° E 05:38:32 10° S visible
29 Jan 6.1 18:25:33 10° SW 18:28:38 16° W 18:31:44 10° NW visible
30 Jan 5.5 04:52:55 10° NE 04:56:38 20° E 05:00:20 10° SE visible
30 Jan 3.2 06:31:01 10° N 06:35:56 50° WNW 06:40:49 10° SW visible
30 Jan 5.0 17:46:53 10° SSW 17:51:30 35° W 17:56:08 10° NNW visible
31 Jan 3.2 05:54:05 10° NNE 05:59:11 76° ESE 06:04:16 10° S visible
01 Feb 4.7 05:17:37 10° NNE 05:22:14 34° E 05:26:50 10° SSE visible
01 Feb 3.8 06:56:46 10° N 07:01:09 30° WNW 07:05:32 10° SW visible
01 Feb 5.9 18:13:23 10° SW 18:17:05 20° W 18:20:50 10° NW visible
02 Feb 5.9 04:42:01 10° NE 04:45:06 16° E 04:48:10 10° SE visible
02 Feb 3.0 06:19:31 10° N 06:24:33 63° WNW 06:29:34 10° SSW visible
03 Feb 3.6 05:42:43 10° NNE 05:47:45 60° E 05:52:45 10° S visible
03 Feb 6.4 18:41:12 10° WSW 18:42:49 11° W 18:44:25 10° WNW visible
